Location: Presov
(49.0000°N, 21.2500°E)
Time: 23:24:05
(UTC+02:00)

Transit 2A Rocket - Pass Details

Date: 18 April 2021
Orbit: 594 x 908 km, 66.7° (Epoch: 05 May)

Event Time Altitude Azimuth Distance (km) Brightness Sun altitude
Rises 17:37:25 0° 243° (WSW) 2,918 9.3 17.6°
Reaches altitude 10° 17:39:57 10° 254° (WSW) 1,980 9.2 17.2°
Maximum altitude 17:43:53 31° 317° (NW) 1,069 6.5 16.6°
Drops below altitude 10° 17:47:45 10° 21° (NNE) 1,938 6.9 15.9°
Sets 17:50:12 0° 32° (NNE) 2,846 7.6 15.5°
